Location: Borea
(45.6167°N, 23.0167°E)
Time: 11:06:17
(UTC+00:00)

Cosmos 1980 Rocket - Pass Details

Date: 03 February 2023
Orbit: 828 x 850 km, 71.0° (Epoch: 31 March)

Event Time Altitude Azimuth Distance (km) Brightness Sun altitude
Rises 17:00:39 0° 251° (WSW) 3,388 7.1 -14.9°
Reaches altitude 10° 17:03:43 10° 267° (W) 2,462 6.0 -15.5°
Maximum altitude 17:07:52 21° 315° (NW) 1,837 4.4 -16.2°
Drops below altitude 10° 17:12:04 10° 2° (N) 2,481 4.5 -16.9°
Sets 17:15:12 0° 19° (NNE) 3,423 5.1 -17.5°
